Hourly Weather Roundup
Issued by NWS Central Illinois

Home | Current Version | Previous Version | Text Only | Print | Product List | Glossary On
Versions: 1 2 3 4 5 6 7 8 9 10 11 12 13 14 15 16 17 18 19 20 21 22 23 24 25 26 27 28 29 30 31 32 33 34 35 36 37 38 39 40 41 42 43 44 45 46 47 48 49 50
000
NZUS43 KILX 300310
HWRILX

AREA WEATHER ROUNDUP
NATIONAL WEATHER SERVICE, LINCOLN IL
1000 PM CDT FRI AUG 29 2014


CITY           SKY/WX    TMP DP  RH WIND       PRES   REMARKS
BLOOMINGTON    MOCLDY    76  68  76 S9        29.92R
CHAMPAIGN      CLEAR     73  70  90 SE7       29.93S
DECATUR        CLOUDY    78  69  73 S10       29.91S HX  80
FLORA          CLEAR     74  69  83 S6        29.95R
GALESBURG      CLOUDY    70  69  96 SE5       29.86S
JACKSONVILLE   CLOUDY    74  72  95 CALM      29.89F FOG
LACON          RAIN      70  67  88 SW12      29.89R
LAWRENCEVILLE  CLEAR     75  71  87 S6        29.95S
LITCHFIELD     MOCLDY    76  68  77 S10       29.91S
$$


CITY           SKY/WX    TMP DP  RH WIND       PRES   REMARKS
LINCOLN        CLOUDY    73  70  90 CALM      29.86F
MACOMB         CLOUDY    69  69 100 SE7       29.88S
MATTOON        CLEAR     74  68  81 SE7       29.92S
MT CARMEL AP   CLEAR     77  72  83 CALM      29.96R
OLNEY-NOBLE AP CLEAR     73  70  88 CALM      29.95S
PARIS          CLEAR     71  70  97 SE5       29.95S
PEORIA         LGT RAIN  72  68  87 SE6       29.89F
PONTIAC        PTCLDY    75  73  94 SE5       29.90R
RANTOUL        CLEAR     73  68  83 CALM      29.94R
ROBINSON       CLEAR     76  73  89 S7        29.96R
SPRINGFIELD    CLOUDY    73  71  93 SE5       29.88F
TAYLORVILLE    MOCLDY    75  70  83 S7        29.89F
$$

...REGIONAL REPORTS...


CITY           SKY/WX    TMP DP  RH WIND       PRES   REMARKS
CHICAGO O`HARE MOCLDY    77  67  71 S15       29.89S
KANKAKEE       CLEAR     72  70  93 SE7       29.92S
MOLINE         LGT RAIN  72  67  84 S12       29.83R
MOUNT VERNON   CLOUDY    79  66  65 S6        29.95S HX  81
PITTSFIELD     CLOUDY    73  70  91 S6        29.89S
QUINCY         MOCLDY    72  70  93 S9        29.87R
ROCKFORD       CLOUDY    71  66  84 SE9       29.86F
$$


CITY           SKY/WX    TMP DP  RH WIND       PRES   REMARKS
BURLINGTON     CLOUDY    72  70  93 S12       29.84S
CEDAR RAPIDS   CLOUDY    69  69 100 S7        29.80S
DES MOINES     CLOUDY    71  67  87 SW6       29.78S
KIRKSVILLE     CLEAR     70  67  90 S7        29.86R
OTTUMWA        CLEAR     69  68  96 S6        29.82R
ST LOUIS       CLOUDY    83  68  60 S10       29.90S HX  86
$$


CITY           SKY/WX    TMP DP  RH WIND       PRES   REMARKS
TERRE HAUTE    CLEAR     73  70  90 SE3       29.96R
EVANSVILLE     CLEAR     82  66  58 S8        29.97S HX  84
INDIANAPOLIS   PTCLDY    78  67  68 S12       29.97  HX  80
LAFAYETTE      PTCLDY    71  69  93 CALM      29.95R
MADISON        CLOUDY    78  70  76 S16       29.82F HX  80
MILWAUKEE      PTCLDY    76  71  85 S12       29.87S
$$




USA.gov is the U.S. government's official web portal to all federal, state and local government web resources and services.